Weather in Yelnat

Russia / Ivanovo Oblast     57°20′14″N   42°49′05″E
temp.,
°C
wind,
m/s
gust,
m/s
humid.,
%
clouds,
%
prec.,
mm/h
press.,
hPa
HPBL,
m
25 february, thu
thu2500:00−17s4995100 0.1 1029376
03:00−17s41096100 0.6 1026445
06:00−17s51195100 1.6 1021464
09:00−15s51095100 3.4 1017481
12:00−12s4894100 1.9 1014463
15:00−9sse3693100 2.6 1012403
18:00−10se249699 0.4 101191
21:00−11sse239797 0.5 101246
26 february, fri
fri2600:00−8s1296100 0.4 101073
03:00−6ese2297100 0.9 101162
06:00−5se3497100 0.3 1008102
09:00−3se3598100 0.8 1006121
12:00−1sse4799100 1.8 1002213
15:00+1ssw38100100 5.3 999227
18:00+2w51499100 4.4 995586
21:00+1w61399100 6.1 994612
27 february, sat
sat2700:00+1w61297100 0.4 992719
03:000w61197100 1.4 993805
06:00−4nw5119597 0.8 994520
09:00−9n599398 1.1 997490
12:00−9n5889100 0.4 1000635
15:00−9n5888100 0.4 1003674
18:00−11n3993100 0.1 1005503
21:00−13n399598 0.1 1008281
28 february, sun
sun2800:00−16nnw369625 0.0 1009128
03:00−18nnw379613 0.0 1012147
06:00−19nnw37960 0.0 1013145
09:00−17nnw36930 0.0 1015244
12:00−12nnw379045 0.0 1016436
15:00−9nnw479073 0.1 1016606
18:00−11nnw3794100 0.1 1018211
21:00−14n339687 0.1 102171
1 march, mon
mon100:00−16nnw23960 0.0 102220
03:00−16nnw229710 0.0 102420
06:00−16nw229873 0.0 102520
09:00−13wsw129784 0.1 102570
12:00−6wsw249281 0.0 1024311
15:00−4wsw479288 0.0 1022435
18:00−3wsw51194100 0.1 1020619
21:00−2wsw51195100 0.4 1016592